Hourly Data Report for June 07, 2019

BORDEN AWOS
ONTARIO
Current Station Operator: DND

44°16'20.000" N
79°54'42.000" W
222.50 m
611B002
71534
YBN

Download Data

Hourly Data (June 2019)
Hourly Data Report for June 7, 2019
TIME
LST
Temp Definition
°C
Dew Point Definition
°C
Rel Hum Definition
%
Precip. Amount Definition
mm

Wind Dir Definition
10's deg

Wind Spd Definition
km/h
Visibility Definition
km
Stn Press Definition
kPa
Hmdx Definition


Wind Chill Definition


Weather Definition


00:00 8.0 7.5 97   22 4 14.5 98.74     LegendNANA
01:00 6.8 6.8 100     0 14.5 98.76     LegendNANA
02:00 5.8 5.5 98   22 6 14.5 98.74     LegendNANA
03:00
04:00 5.5 4.9 96   25 4 14.5 98.80     LegendNANA
05:00 4.6 4.6 100     0 6.4 98.85     LegendNANA
06:00 9.4 8.8 96   20 4 14.5 98.89     LegendNANA
07:00 14.8 10.4 75     0 14.5 98.91     LegendNANA
08:00 17.4 8.8 57   33 15 14.5 98.96     LegendNANA
09:00 19.3 9.5 53   34 9 14.5 99.02     LegendNANA
10:00 20.3 9.6 50   34 15 14.5 99.03     LegendNANA
11:00 21.9 10.1 47   2 7 14.5 99.04     LegendNANA
12:00 23.0 9.3 42   2 9 14.5 99.04     LegendNANA
13:00 24.7 7.8 34   35 7 14.5 98.99 25   LegendNANA
14:00 24.2 11.1 44   36 17 14.5 99.02 26   LegendNANA
15:00 23.6 9.0 39   31 17 14.5 99.00     LegendNANA
16:00 24.5 8.0 35   34 11 14.5 98.99 25   LegendNANA
17:00 22.6 7.7 38   35 20 14.5 99.01     LegendNANA
18:00 21.0 7.6 42   33 15 14.5 99.01     LegendNANA
19:00 19.7 8.2 47   34 7 14.5 99.07     LegendNANA
20:00 17.0 7.9 55   33 6 14.5 99.11     LegendNANA
21:00 13.0 7.9 71     0 14.5 99.15     LegendNANA
22:00 12.7 8.1 74   33 4 14.5 99.26     LegendNANA
23:00 12.6 7.9 73   33 6 14.5 99.31     LegendNANA

Notes on Data Quality.

Legend

  • E = Estimated
  • M = Missing
  • NA = Not Available*
  • [empty] = Indicates an unobserved value
Date modified: